#timestamp,LO_Frequency,Hit 
1498608015.5,286047065.3,N
1498608035.3,286047067.5,N
1498608055.1,286047069.5,N
1498608075.9,286047069.1,N
1498608095.7,286047069.2,N
1498608115.5,286047069.5,N
1498608135.3,286047068.3,N
1498608155.2,286047068.0,N
1498608175.0,286047067.3,N
1498608175.9,286047067.3,N
1498608195.7,286047068.8,N
1498608215.6,286047070.6,N
1498608235.4,286047073.1,N
1498608255.2,286047070.7,N
1498608275.1,286047071.1,N
1498608276.0,286047071.1,N
1498608295.8,286047071.5,N
1498608315.6,286047068.6,N
1498608335.5,286047069.2,N
1498608355.3,286047069.4,N
1498608375.1,286047071.6,N
1498608395.9,286047069.1,N
1498608415.7,286047068.7,N
1498608435.5,286047071.5,N
1498608455.4,286047069.3,N
1498608475.2,286047069.8,N
1498608495.0,286047071.5,N
1498608495.9,286047071.5,N
1498608515.7,286047073.2,N
1498608535.6,286047073.1,N
1498608555.4,286047072.3,N
1498608575.2,286047074.4,N
1498608595.1,286047072.0,N
1498608596.0,286047072.0,N
1498608615.8,286047071.9,N
1498608635.6,286047071.7,N
1498608655.5,286047076.2,N
1498608675.3,286047074.1,N
1498608695.1,286047072.5,N
1498608715.9,286047070.5,N
1498608735.7,286047071.7,N
1498608755.5,286047074.7,N
1498608775.4,286047072.1,N
1498608795.2,286047073.8,N
1498608815.0,286047073.6,N
1498608815.9,286047073.6,N
1498608835.8,286047073.3,N
1498608855.6,286047076.2,N
1498608875.4,286047076.3,N
1498608895.2,286047075.9,N
1498608915.1,286047077.8,N
1498608916.0,286047077.8,N
1498608935.8,286047076.9,N
1498608955.6,286047076.0,N
1498608975.5,286047072.1,N
1498608995.3,286047072.3,N
1498609015.1,286047074.6,N
1498609035.9,286047074.1,N
1498609055.7,286047075.9,N
1498609075.5,286047073.9,N
1498609095.4,286047073.4,N
1498609115.2,286047074.0,N
1498609135.0,286047073.4,N
1498609135.9,286047073.4,N
1498609155.8,286047074.2,N
1498609175.6,286047074.6,N
1498609195.4,286047076.9,N
1498609215.2,286047076.5,N
1498609235.1,286047073.3,N
1498609236.0,286047073.3,N
1498609255.8,286047073.4,N
1498609275.6,286047077.7,N
1498609295.5,286047082.8,N
1498609315.3,286047080.9,N
1498609335.1,286047076.5,N
1498609355.9,286047076.5,N
1498609375.7,286047077.1,N
1498609395.5,286047077.0,N
1498609415.4,286047078.9,N
1498609435.2,286047080.8,N
1498609455.0,286047076.7,N
1498609455.9,286047076.7,N
1498609475.8,286047078.9,N
1498609495.6,286047079.7,N
1498609515.4,286047082.4,N
1498609535.3,286047082.2,N
1498609555.1,286047079.8,N
1498609556.0,286047079.8,N
1498609575.8,286047081.6,N
1498609595.7,286047082.4,N
1498609615.5,286047078.1,N
1498609635.3,286047079.2,N
1498609655.1,286047079.1,N
1498609675.9,286047078.1,N
1498609695.7,286047082.8,N
1498609715.5,286047084.0,N
1498609735.4,286047082.1,N
1498609755.2,286047081.7,N
1498609775.0,286047080.1,N
1498609775.9,286047080.1,N
1498609795.8,286047082.3,N
1498609815.6,286047080.1,N
1498609835.4,286047080.7,N
1498609855.3,286047080.0,N
1498609875.1,286047082.7,N
1498609876.0,286047082.7,N
1498609895.8,286047080.3,N
1498609915.7,286047081.0,N
1498609935.5,286047079.7,N
1498609955.3,286047079.8,N
1498609975.1,286047080.5,N
1498609995.9,286047080.2,N
1498610015.7,286047080.4,N
1498610035.5,286047080.1,N
1498610055.4,286047078.3,N
1498610075.2,286047078.5,N
1498610095.0,286047082.7,N
1498610095.9,286047082.7,N
1498610115.8,286047082.3,N
1498610135.6,286047082.3,N
1498610155.4,286047084.2,N
1498610175.3,286047083.9,N
1498610195.1,286047084.3,N
1498610196.0,286047084.3,N
1498610215.8,286047085.7,N
1498610235.6,286047085.1,N
1498610255.5,286047087.2,N
1498610275.3,286047087.4,N
1498610295.1,286047086.7,N
1498610315.9,286047086.7,N
1498610335.7,286047087.0,N
1498610355.5,286047087.0,N
1498610375.4,286047086.9,N
1498610395.2,286047087.2,N
1498610415.0,286047083.8,N
1498610415.9,286047083.8,N
1498610435.8,286047083.5,N
1498610455.6,286047083.7,N
1498610475.4,286047083.9,N
1498610495.3,286047084.0,N
1498610515.1,286047081.9,N
1498610516.0,286047081.9,N
1498610535.8,286047084.2,N
1498610555.7,286047082.0,N
1498610575.5,286047081.6,N
1498610595.3,286047082.3,N
1498610615.1,286047081.3,N
1498610635.9,286047081.3,N
1498610655.7,286047083.4,N
1498610675.5,286047083.6,N
1498610695.4,286047086.0,N
1498610715.2,286047084.6,N
1498610735.0,286047083.0,N
1498610735.9,286047083.0,N
1498610755.8,286047085.6,N
1498610775.6,286047085.3,N
1498610795.4,286047083.4,N
1498610815.3,286047083.6,N
1498610835.1,286047083.0,N
1498610836.0,286047083.0,N
1498610855.8,286047085.5,N
1498610875.7,286047085.5,N
1498610895.5,286047083.1,N
1498610915.3,286047085.2,N
1498610935.2,286047085.0,N
1498610955.9,286047084.9,N
1498610975.7,286047087.0,N
1498610995.6,286047088.7,N
1498611015.4,286047088.0,N
1498611035.2,286047088.0,N
1498611055.0,286047090.8,N
1498611056.0,286047090.8,N
1498611075.8,286047087.9,N
1498611095.6,286047087.9,N
1498611115.4,286047088.0,N
1498611135.3,286047088.3,N
1498611155.1,286047086.9,N
1498611175.8,286047088.7,N
1498611195.7,286047088.2,N
1498611215.5,286047090.7,N
1498611235.3,286047086.5,N
1498611255.2,286047089.1,N
1498611275.9,286047083.3,N
1498611295.7,286047085.5,N
1498611315.6,286047086.3,N
1498611335.4,286047088.2,N
1498611355.2,286047091.9,N
1498611375.0,286047093.9,N
1498611375.9,286047093.9,N
1498611395.8,286047095.0,N
1498611415.6,286047094.5,N
1498611435.4,286047095.0,N
1498611455.3,286047093.2,N
1498611475.1,286047092.8,N
1498611495.8,286047093.0,N
1498611515.7,286047097.2,N
1498611535.5,286047097.0,N
1498611555.3,286047096.8,N
1498611575.2,286047094.4,N
1498611595.9,286047094.5,N
